Volver al catálogo

STARLINK-30207

ActivoComunicacionesVLEO
NORAD 57407·PAYLOAD·🇺🇸 United States

Lanzado Jul 20, 2023 desde Vandenberg Space Force Base

Loading…

Próximos Pases (próximas 24 horas)

TLE

ActualizadoSource: CelesTrak SupGP

Época: Sep 14, 2026, 20:34 UTC

1 57407C 23102D   26257.85743056  .00028169  00000+0  10205-2 0  2573
2 57407  43.0022 245.7529 0001457 260.0532 304.8371 15.27557949    16

Sigue STARLINK-30207 en tiempo real con AllMySat

Download on the App Store